{"data":{"norad_id":62774,"intl_designator":"2025-015S","name":"STARLINK-33574","alt_names":[],"object_type":"PAYLOAD","status":"ACTIVE","operator":null,"country":"US","launch_date":"2025-01-21","launch_site_code":"AFWTR","launch_vehicle":null,"mission":null,"orbit_class":"UNKNOWN","rcs_meters":null,"size_class":null,"mass_kg":null,"dimensions":null,"purposes":["comms"],"wikipedia_slug":null,"has_3d_model":false,"image_url":null,"decayed_at":null,"tle_current":{"epoch":"2026-05-25T04:48:10.766304Z","epoch_age_seconds":64731,"freshness":"FRESH","line1":"1 62774U 25015S   26145.20012461  .00020329  00000+0  61116-3 0  9996","line2":"2 62774  53.1600 326.4790 0001048  93.7567 266.3556 15.34399639 75922","mean_motion":15.34399639,"eccentricity":0.0001048,"inclination_deg":53.16,"raan_deg":326.479,"arg_perigee_deg":93.7567,"mean_anomaly_deg":266.3556,"bstar":0.00061116,"rev_number":7592,"period_min":93.847780161007,"perigee_km":461.98739300577,"apogee_km":463.42123334501,"semimajor_km":6840.8413131754,"source":"CELESTRAK","updated_at":"2026-05-25T13:38:19.746678Z"}}}